Regional Weather Roundup
Issued by NWS

Home | Current Version | Previous Version | Graphics & Text | Print | Product List | Glossary On
Versions: 1 2 3 4 5 6 7 8 9 10 11 12 13 14 15 16 17 18 19 20 21 22 23 24 25 26 27 28 29 30 31 32 33 34 35 36 37 38 39 40 41 42 43 44 45 46 47 48 49 50
000
ASUS43 KIND 240109
RWRIN

WEATHER ROUNDUP FOR INDIANA
NATIONAL WEATHER SERVICE INDIANAPOLIS IN
900 PM EDT SAT JUL 23 2016

NOTE: "FAIR" INDICATES FEW OR NO CLOUDS BELOW 12,000 FEET WITH NO
SIGNIFICANT WEATHER AND/OR OBSTRUCTIONS TO VISIBILITY.

* - STATION DOES NOT REPORT WEATHER SUCH AS PRECIPITATION OR FOG.

+ - STATION NOT QUALITY CONTROLLED BY THE NATIONAL WEATHER SERVICE.
    USE DATA WITH CAUTION...ESPECIALLY DEWPOINT AND RELATIVE
    HUMIDITY OBSERVATIONS.

INZ001>003-010>013-019-020-240200-
NORTHWEST INDIANA

CITY           SKY/WX    TMP DP  RH WIND       PRES   REMARKS
GARY /AIRPORT/ CLOUDY    77 N/A N/A N15G32    30.00R THUNDER
KNOX *+        CLOUDY    81  73  78 CALM      29.95R
LA PORTE +     CLOUDY    84  80  87 CALM      29.95F HX  98
MICHIGAN CITY+ RAIN      73  72  94 N23G33    29.98R
MONTICELLO +   PTCLDY    82  74  74 CALM      29.94S
RENSSELAER +   PTCLDY    81  79  94 CALM      29.95R
VALPARAISO     MOCLDY    82  77  84 W8        29.97R

$$

LMZ046-743>745-240200-
SOUTHERN LAKE MICHIGAN

STATION/POSITION TIME  TEMP    WIND        PRES    WAVE
                       AIR SEA DIR/SP/G            HT
                 (UTC) (F)     (DEG/KT/KT) (MB)    (FT)
BURNS HARBOR     0000   81      60/  8/ 12 1014.2R
MICHIGAN CITY    0000   84      40/  6/  6   N/A
5NW MICH CITY    0100   74 75  330/ 23/ 37   N/A     2

$$

INZ004-005-014>016-021>024-240200-
NORTH CENTRAL INDIANA

CITY           SKY/WX    TMP DP  RH WIND       PRES   REMARKS
LOGANSPORT +   PTCLDY    81  77  89 CALM      29.96S
PERU/GRISSOM   PTCLDY    85  76  74 SW2       29.95R
ROCHESTER +    PTCLDY    86  79  79 CALM      29.96R HX  99
SOUTH BEND     CLOUDY    73  69  87 E6        29.94F
WARSAW +       CLOUDY    82  72  69 E7        29.97R

$$

INZ006>009-017-018-025>027-240200-
NORTHEAST INDIANA

CITY           SKY/WX    TMP DP  RH WIND       PRES   REMARKS
ANGOLA *+        N/A     81  75  83 CALM      29.99R
AUBURN +       CLOUDY    81  66  61 CALM      29.98R
FORT WAYNE     CLOUDY    84  76  76 SW5       29.97R
HUNTINGTON +   PTCLDY   N/A N/A N/A CALM      29.97R

$$

INZ028-029-035-036-043>045-051>053-240200-
WEST CENTRAL INDIANA

CITY           SKY/WX    TMP DP  RH WIND       PRES   REMARKS
CRAWFORDSVL +  CLEAR     80  80 100 CALM      29.96S
GREENCASTLE +  CLEAR     81  79  94 CALM      29.97R
LAFAYETTE      PTCLDY    83  77  82 CALM      29.93F
TERRE HAUTE    PTCLDY    86  75  69 CALM      29.95R HX  95

$$

INZ030>032-037>040-046>048-054>057-064-065-240200-
CENTRAL INDIANA

CITY           SKY/WX    TMP DP  RH WIND       PRES   REMARKS
COLUMBUS       CLEAR     84  77  79 CALM      29.96R
FRANKFORT +    CLEAR     83  83 100 CALM      29.98S HX 100
INDIANAPOLIS   PTCLDY    84  73  69 NW5       29.96R
-EAGLE CREEK   CLEAR     85  74  69 CALM      29.95R
KOKOMO *+      PTCLDY    84  73  70 CALM      29.96R
MARION +       PTCLDY    81  74  78 CALM      29.98R HAZE
MT COMFORT *+  CLOUDY    81  75  83 S3        29.98R
SHELBYVILLE    PTCLDY    86  75  69 CALM      29.96R HX  95
ZIONSVILLE +   CLEAR     81  76  85 CALM      29.97F

$$

INZ033-034-041-042-049-050-058-059-240200-
EAST CENTRAL INDIANA

CITY           SKY/WX    TMP DP  RH WIND       PRES   REMARKS
MUNCIE         PTCLDY    86  72  62 N3        29.98R

$$

INZ060-061-067>069-081>083-085>088-240200-
SOUTHWEST INDIANA

CITY           SKY/WX    TMP DP  RH WIND       PRES   REMARKS
EVANSVILLE     CLEAR     86  76  71 CALM      29.94R HX  96
HUNTINGBURG *+ CLEAR     84  75  74 CALM      29.95R
WASHINGTON +   CLEAR     82  82 100 MISG      29.94R FOG     HX  95

$$

INZ062-063-066-070>080-084-089>092-240200-
SOUTH CENTRAL AND SOUTHEAST INDIANA

CITY           SKY/WX    TMP DP  RH WIND       PRES   REMARKS
BLOOMINGTON    CLEAR     82  77  84 CALM      29.96R
MADISON *+     CLEAR     82  77  83 CALM      29.99R
NORTH VERNON + CLEAR     84  82  94 CALM      29.97  HX 101
SEYMOUR +      CLEAR     84  77  79 CALM      29.95S

$$





USA.gov is the U.S. government's official web portal to all federal, state and local government web resources and services.